* Astronomy

Members Login
Username 
 
Password 
    Remember Me  
Post Info TOPIC: Asteroid 2012 KC6


L

Posts: 131433
Date:
Asteroid 2012 KC6
Permalink  
 


Orbital elements:
2012 KC6                                            PHA, Earth MOID = 0.0494 AU
Epoch 2012 Mar. 14.0 TT = JDT 2456000.5                 MPC
M 354.32924              (2000.0)            P               Q
n   0.71230426     Peri.  337.98585     -0.99143277     -0.11965585
a   1.2417258      Node   195.42057     +0.12822552     -0.96799084
e   0.2471266      Incl.   11.36073     -0.02488543     -0.22062687
P   1.38           H   21.7           G   0.15           U   8

MPEC 2012 - K24



__________________
Page 1 of 1  sorted by
 
Quick Reply

Please log in to post quick replies.



Create your own FREE Forum
Report Abuse
Powered by ActiveBoard